FW2522 Weather Reports


time (UTC)temp
C
wind
direction
speed
KPH
gust
KPH
rain 1hr
cm
rain 24hr
cm
rain mn
cm
humidity
%
barometer
mb
20260505041559 16 360 3.2 9.7 0.00 0.00 0.00 41 1015.7
20260505040056 16 360 1.6 4.8 0.00 0.00 0.00 39 1015.8
20260505034552 16 360 1.6 6.4 0.00 0.00 0.00 38 1016.0
20260505033049 16 360 1.6 6.4 0.00 0.00 0.00 37 1015.9
20260505031555 17 360 1.6 4.8 0.00 0.00 0.00 37 1015.9
20260505030048 17 360 1.6 9.7 0.00 0.00 0.00 38 1016.0
20260505024556 16 360 1.6 4.8 0.00 0.00 0.00 40 1015.7
20260505023013 17 360 0.0 4.8 0.00 0.00 0.00 36 1015.6
20260505021510 17 360 1.6 3.2 0.00 0.00 0.00 34 1015.4
20260505020005 18 360 0.0 4.8 0.00 0.00 0.00 33 1015.4
20260505014504 18 360 0.0 3.2 0.00 0.00 0.00 33 1015.4
20260505013001 18 360 0.0 3.2 0.00 0.00 0.00 31 1015.3
20260505011606 20 360 0.0 3.2 0.00 0.00 0.00 30 1015.3
20260505010055 20 360 1.6 6.4 0.00 0.00 0.00 29 1015.0
20260505004550 20 360 1.6 6.4 0.00 0.00 0.00 26 1014.8
20260505003047 21 360 1.6 6.4 0.00 0.00 0.00 25 1014.8
20260505001545 21 360 3.2 8.0 0.00 0.00 0.00 24 1014.6
20260505000054 21 360 1.6 9.7 0.00 0.00 0.00 24 1014.6
20260504234546 22 360 3.2 12.9 0.00 0.00 0.00 23 1014.4
20260504233050 22 360 1.6 8.0 0.00 0.00 0.00 22 1014.3
20260504231534 22 360 1.6 9.7 0.00 0.00 0.00 21 1014.2
20260504230036 23 360 3.2 14.5 0.00 0.00 0.00 21 1014.1
20260504224528 23 360 3.2 6.4 0.00 0.00 0.00 21 1014.1
20260504223039 23 360 6.4 17.7 0.00 0.00 0.00 20 1014.1
20260504221527 23 234 4.8 12.9 0.00 0.00 0.00 19 1014.1
20260504220022 24 220 6.4 12.9 0.00 0.00 0.00 21 1014.2
20260504214553 24 169 4.8 14.5 0.00 0.00 0.00 21 1014.2
20260504213100 23 189 4.8 16.1 0.00 0.00 0.00 20 1014.3
20260504211528 23 221 4.8 14.5 0.00 0.00 0.00 20 1014.2
20260504210017 24 219 6.4 16.1 0.00 0.00 0.00 18 1014.4
20260504204531 25 236 4.8 14.5 0.00 0.00 0.00 18 1014.5
20260504203015 25 207 3.2 16.1 0.00 0.00 0.00 20 1014.6
20260504201507 25 242 9.7 16.1 0.00 0.00 0.00 17 1014.8
20260504200005 25 204 8.0 16.1 0.00 0.00 0.00 19 1015.0
20260504194603 25 219 4.8 14.5 0.00 0.00 0.00 22 1015.2
20260504193057 25 242 6.4 14.5 0.00 0.00 0.00 21 1015.4
20260504191558 24 162 4.8 14.5 0.00 0.00 0.00 20 1015.4
20260504190052 23 196 4.8 17.7 0.00 0.00 0.00 18 1015.6
20260504184520 24 188 1.6 11.3 0.00 0.00 0.00 20 1015.8
20260504183018 23 252 6.4 16.1 0.00 0.00 0.00 21 1016.2
20260504181515 23 203 4.8 12.9 0.00 0.00 0.00 22 1016.2
20260504180012 23 150 3.2 14.5 0.00 0.00 0.00 25 1016.5
20260504174508 22 172 1.6 12.9 0.00 0.00 0.00 23 1016.4
20260504173007 22 82 6.4 16.1 0.00 0.00 0.00 23 1016.6
20260504171504 22 81 4.8 11.3 0.00 0.00 0.00 24 1016.8
20260504081510 6 360 0.0 0.0 0.00 0.00 0.00 52 1017.6